Total_Precipitation_Accumulation
0.06 0.12 0.29 0.33 0.34 0.32 0.32 0.29 0.28 0.27 0.25 0.25 0.27 0.29 0.28 0.27 0.25 0.24 0.22 0.24 0.30 0.38 0.46 0.49 0.47 0.42 0.38 0.32 0.19 0.11 0.10 0.12 0.08 0.07 0.06 0.07 0.09 0.10 0.09 0.08 0.09 0.13 0.17
0.06 0.12 0.25 0.33 0.37 0.38 0.37 0.33 0.28 0.25 0.25 0.29 0.32 0.30 0.29 0.29 0.28 0.27 0.29 0.32 0.34 0.39 0.45 0.49 0.49 0.38 0.29 0.22 0.13 0.08 0.08 0.04 0.02 0.01 0.01 0.02 0.04 0.06 0.07 0.06 0.08 0.13 0.16
0.06 0.12 0.23 0.34 0.41 0.41 0.37 0.32 0.27 0.25 0.27 0.31 0.35 0.33 0.32 0.32 0.31 0.29 0.30 0.32 0.35 0.39 0.38 0.37 0.35 0.26 0.19 0.13 0.09 0.07 0.05 0.02 0.01 0.01 0.02 0.04 0.05 0.08 0.08 0.08 0.11 0.14 0.16
0.10 0.13 0.22 0.36 0.49 0.46 0.41 0.34 0.30 0.31 0.33 0.36 0.40 0.38 0.39 0.36 0.33 0.33 0.30 0.29 0.31 0.30 0.28 0.26 0.21 0.15 0.11 0.09 0.07 0.06 0.04 0.02 0.01 0.01 0.03 0.05 0.07 0.12 0.13 0.12 0.13 0.15 0.15
0.16 0.18 0.26 0.37 0.56 0.56 0.46 0.38 0.33 0.35 0.40 0.44 0.46 0.45 0.47 0.42 0.41 0.38 0.32 0.28 0.27 0.21 0.19 0.17 0.13 0.08 0.06 0.06 0.07 0.06 0.05 0.03 0.02 0.02 0.03 0.07 0.10 0.16 0.16 0.15 0.15 0.15 0.15
0.21 0.26 0.33 0.42 0.60 0.69 0.57 0.47 0.39 0.39 0.45 0.51 0.56 0.57 0.55 0.52 0.49 0.44 0.32 0.25 0.21 0.16 0.14 0.14 0.13 0.08 0.05 0.05 0.05 0.05 0.06 0.05 0.03 0.02 0.03 0.06 0.10 0.18 0.19 0.16 0.16 0.17 0.19
0.25 0.37 0.47 0.54 0.66 0.83 0.76 0.64 0.56 0.52 0.53 0.57 0.62 0.61 0.61 0.62 0.60 0.52 0.33 0.23 0.18 0.15 0.13 0.12 0.12 0.08 0.05 0.05 0.05 0.05 0.06 0.06 0.05 0.05 0.05 0.06 0.12 0.21 0.21 0.18 0.17 0.17 0.16
0.35 0.44 0.63 0.79 0.84 1.00 1.01 0.81 0.71 0.65 0.64 0.66 0.65 0.64 0.66 0.66 0.65 0.60 0.39 0.24 0.17 0.17 0.16 0.14 0.14 0.11 0.08 0.07 0.07 0.07 0.07 0.05 0.04 0.05 0.05 0.06 0.10 0.15 0.14 0.11 0.11 0.13 0.14
0.58 0.55 0.66 0.84 0.97 1.08 1.16 0.96 0.87 0.77 0.69 0.69 0.71 0.72 0.65 0.58 0.59 0.55 0.41 0.27 0.22 0.21 0.21 0.19 0.18 0.17 0.12 0.10 0.09 0.07 0.05 0.04 0.03 0.05 0.04 0.05 0.07 0.11 0.10 0.11 0.14 0.16 0.17
0.92 0.84 0.76 0.84 0.95 1.12 1.22 0.98 0.85 0.80 0.74 0.73 0.71 0.64 0.53 0.48 0.49 0.47 0.35 0.27 0.24 0.24 0.23 0.20 0.19 0.19 0.16 0.13 0.10 0.08 0.06 0.04 0.03 0.04 0.05 0.05 0.06 0.09 0.12 0.14 0.16 0.18 0.19
1.21 1.17 1.06 0.98 0.94 1.01 1.14 1.03 0.92 0.84 0.76 0.72 0.69 0.59 0.51 0.49 0.49 0.41 0.30 0.23 0.24 0.25 0.24 0.21 0.19 0.19 0.15 0.11 0.10 0.09 0.09 0.08 0.07 0.08 0.08 0.07 0.07 0.10 0.14 0.18 0.19 0.18 0.17
1.26 1.23 1.21 1.16 1.06 1.06 1.08 1.08 1.04 0.90 0.81 0.71 0.64 0.57 0.56 0.54 0.49 0.40 0.33 0.27 0.28 0.28 0.29 0.26 0.22 0.19 0.15 0.12 0.12 0.12 0.11 0.09 0.10 0.10 0.09 0.09 0.10 0.16 0.21 0.23 0.19 0.17 0.15
1.51 1.37 1.27 1.28 1.25 1.15 1.09 1.07 1.04 0.87 0.80 0.79 0.72 0.62 0.59 0.64 0.62 0.56 0.43 0.33 0.32 0.30 0.30 0.28 0.24 0.19 0.16 0.14 0.13 0.11 0.13 0.13 0.13 0.12 0.11 0.10 0.13 0.21 0.26 0.25 0.20 0.17 0.16
1.83 1.66 1.52 1.52 1.44 1.29 1.19 1.14 1.09 0.90 0.76 0.74 0.74 0.74 0.67 0.63 0.57 0.55 0.48 0.37 0.34 0.32 0.33 0.33 0.26 0.23 0.21 0.18 0.16 0.15 0.15 0.15 0.15 0.16 0.14 0.13 0.11 0.17 0.25 0.29 0.26 0.24 0.23
1.98 1.95 1.78 1.71 1.65 1.50 1.41 1.27 1.12 0.99 0.80 0.70 0.70 0.75 0.72 0.63 0.57 0.53 0.48 0.44 0.37 0.35 0.34 0.36 0.32 0.29 0.27 0.27 0.24 0.20 0.18 0.17 0.17 0.18 0.19 0.19 0.14 0.16 0.23 0.30 0.35 0.37 0.39
1.92 2.07 2.00 1.96 1.81 1.64 1.51 1.40 1.21 1.11 0.94 0.81 0.75 0.73 0.74 0.72 0.66 0.62 0.53 0.48 0.42 0.38 0.37 0.39 0.41 0.36 0.31 0.28 0.27 0.24 0.21 0.19 0.17 0.16 0.16 0.18 0.18 0.19 0.23 0.28 0.36 0.47 0.54
1.90 2.09 2.14 2.21 2.22 1.92 1.69 1.59 1.40 1.24 1.12 0.98 0.85 0.76 0.72 0.73 0.77 0.73 0.66 0.55 0.47 0.48 0.45 0.45 0.46 0.47 0.41 0.32 0.28 0.27 0.25 0.24 0.21 0.18 0.17 0.16 0.15 0.14 0.18 0.26 0.34 0.41 0.49
1.99 2.05 2.14 2.12 2.22 2.20 1.99 1.78 1.57 1.39 1.23 1.13 1.02 0.89 0.81 0.77 0.81 0.83 0.77 0.74 0.66 0.58 0.55 0.53 0.50 0.46 0.42 0.35 0.30 0.28 0.27 0.27 0.24 0.23 0.23 0.18 0.15 0.12 0.12 0.18 0.25 0.30 0.37
2.06 2.07 2.20 2.18 2.17 2.20 2.18 2.01 1.83 1.68 1.47 1.31 1.24 1.07 0.96 0.95 0.95 0.95 0.86 0.86 0.87 0.78 0.67 0.62 0.59 0.52 0.49 0.44 0.40 0.39 0.36 0.32 0.27 0.24 0.21 0.18 0.17 0.16 0.15 0.15 0.18 0.21 0.25
2.10 2.22 2.28 2.42 2.40 2.44 2.51 2.39 2.16 1.98 1.82 1.64 1.45 1.37 1.23 1.11 1.09 1.05 1.01 0.96 0.98 0.93 0.80 0.72 0.65 0.59 0.54 0.54 0.54 0.46 0.40 0.35 0.33 0.30 0.25 0.21 0.20 0.21 0.23 0.24 0.24 0.24 0.23
1.79 2.01 2.04 2.23 2.43 2.50 2.47 2.33 2.14 1.97 1.85 1.74 1.63 1.57 1.45 1.31 1.24 1.15 1.08 1.07 1.07 1.02 0.91 0.86 0.80 0.71 0.65 0.66 0.64 0.51 0.41 0.35 0.31 0.29 0.31 0.30 0.26 0.24 0.26 0.29 0.31 0.30 0.25
1.43 1.57 1.69 1.82 2.04 2.20 2.22 2.15 2.16 2.20 2.03 1.82 1.68 1.60 1.54 1.46 1.37 1.25 1.15 1.14 1.13 1.09 0.99 0.94 0.97 0.93 0.83 0.80 0.80 0.78 0.62 0.47 0.36 0.32 0.33 0.33 0.30 0.30 0.29 0.27 0.28 0.30 0.31
1.14 1.27 1.39 1.52 1.65 1.74 1.97 2.15 2.17 2.21 2.13 1.85 1.60 1.48 1.51 1.59 1.57 1.42 1.28 1.27 1.28 1.27 1.18 1.09 1.07 1.04 1.01 0.96 0.96 1.05 0.91 0.66 0.47 0.38 0.36 0.35 0.35 0.35 0.33 0.33 0.32 0.32 0.32
0.91 1.07 1.20 1.34 1.45 1.50 1.68 1.82 1.84 1.70 1.64 1.55 1.48 1.50 1.54 1.59 1.65 1.63 1.55 1.44 1.39 1.39 1.35 1.40 1.41 1.31 1.23 1.10 1.02 0.98 0.95 0.82 0.78 0.59 0.43 0.41 0.39 0.37 0.36 0.34 0.33 0.32 0.33
0.74 0.82 0.99 1.19 1.28 1.32 1.40 1.49 1.64 1.64 1.57 1.58 1.56 1.50 1.44 1.40 1.50 1.59 1.60 1.55 1.41 1.32 1.28 1.34 1.41 1.44 1.34 1.24 1.16 1.10 1.07 0.95 0.87 0.85 0.64 0.47 0.45 0.43 0.42 0.43 0.44 0.45 0.46
0.66 0.64 0.77 0.93 1.16 1.25 1.29 1.34 1.43 1.45 1.40 1.41 1.48 1.47 1.46 1.38 1.33 1.38 1.44 1.40 1.41 1.35 1.28 1.30 1.39 1.47 1.47 1.41 1.31 1.20 1.15 1.08 0.95 0.96 0.90 0.69 0.61 0.55 0.54 0.57 0.59 0.61 0.61